Weather History for Morgantown, WV

Change the Weather History Date:

Tuesday, September 18, 2012

  Actual Average Record
Temperature  
Mean Temperature 62 °F 64 °F  
Max Temperature 69 °F 75 °F 89 °F (1955)
Min Temperature 54 °F 54 °F 33 °F (1959)
Degree Days  
Heating Degree Days 3 3  
Month to date heating degree days 22 29  
Since 1 July heating degree days 22 40  
Cooling Degree Days 0 3  
Month to date cooling degree days 104 72  
Year to date cooling degree days 1104 781  
Growing Degree Days 12 (Base 50)    
Moisture  
Dew Point 61 °F    
Average Humidity 92    
Maximum Humidity 100    
Minimum Humidity 84    
Precipitation  
Precipitation 0.73 in 0.11 in 1.66 in (1970)
Month to date precipitation 1.96 1.91  
Year to date precipitation 22.64 31.38  
Sea Level Pressure  
Sea Level Pressure 29.72 in    
Wind  
Wind Speed 4 mph (SSW)    
Max Wind Speed 13 mph    
Max Gust Speed 22 mph    
Visibility 8 miles    
Events Rain    
T = Trace of Precipitation, MM = Missing Value Source: NWS Daily Summary

Daily Weather History Graph

Daily Weather History Graph

Search for Another Location

Airport:

Trip Planner

Search our weather history database for the weather conditions in past years. The results will help you decide how hot, cold, wet, or windy it might be!

Date:

Astronomy

Sep. 18, 2012 Rise Set
Actual Time 7:04 AM EDT 7:22 PM EDT
Civil Twilight 6:37 AM EDT 7:49 PM EDT
Nautical Twilight 6:05 AM EDT 8:21 PM EDT
Astronomical Twilight 5:33 AM EDT 8:53 PM EDT
Moon 10:01 AM EDT (9/18) 8:45 PM EDT (9/18)
Length of Visible Light 13h 12m
Length of Day
12h 18m
Waxing Crescent, 9% of the Moon is Illuminated
Sep 18
Waxing Crescent
Sep 22
First Quarter
Sep 29
Full
Oct 8
Last Quarter
Oct 15
New

Hourly Weather History & Observations

Time (EDT) Temp. Dew Point Humidity Pressure Visibility Wind Dir Wind Speed Gust Speed Precip Events Conditions
12:53 AM 64.0 °F 62.1 °F 93% 29.86 in 8.0 mi Calm Calm - 0.05 in Rain Light Rain
1:40 AM 64.4 °F 62.6 °F 94% 29.85 in 2.0 mi SE 4.6 mph - 0.11 in Rain Heavy Rain
1:50 AM 64.4 °F 62.6 °F 94% 29.84 in 5.0 mi SE 5.8 mph - 0.12 in Rain Light Rain
1:53 AM 64.0 °F 62.1 °F 93% 29.82 in 6.0 mi SE 4.6 mph - 0.13 in Rain Light Rain
2:53 AM 64.0 °F 62.1 °F 93% 29.78 in 10.0 mi SSE 5.8 mph - 0.03 in Rain Light Rain
3:53 AM 64.0 °F 63.0 °F 96% 29.73 in 6.0 mi SE 3.5 mph - 0.11 in Rain Rain
4:53 AM 64.0 °F 63.0 °F 96% 29.68 in 2.0 mi South 3.5 mph - 0.11 in Rain Rain
4:57 AM 64.4 °F 62.6 °F 94% 29.71 in 1.8 mi South 6.9 mph - 0.04 in Rain Heavy Rain
5:07 AM 64.4 °F 62.6 °F 94% 29.68 in 3.0 mi ESE 4.6 mph - 0.08 in Rain Heavy Rain
5:53 AM 64.0 °F 63.0 °F 96% 29.62 in 6.0 mi Calm Calm - 0.14 in Rain Light Rain
6:53 AM 64.9 °F 63.0 °F 93% 29.59 in 10.0 mi South 4.6 mph - 0.05 in Rain Light Rain
7:53 AM 66.0 °F 64.0 °F 93% 29.60 in 6.0 mi SSW 8.1 mph - 0.05 in Rain Light Rain
8:35 AM 66.2 °F 64.4 °F 94% 29.63 in 10.0 mi SSW 6.9 mph - 0.02 in Rain Light Rain
8:53 AM 64.9 °F 64.0 °F 97% 29.62 in 7.0 mi SSW 4.6 mph - 0.03 in Rain Light Rain
9:16 AM 64.4 °F 64.4 °F 100% 29.65 in 8.0 mi SSW 3.5 mph - 0.01 in Rain Light Rain
9:24 AM 64.4 °F 64.4 °F 100% 29.65 in 5.0 mi SSW 4.6 mph - 0.02 in Rain Light Rain
9:44 AM 64.4 °F 64.4 °F 100% 29.66 in 8.0 mi SSW 4.6 mph - 0.02 in Rain Light Rain
9:53 AM 64.9 °F 64.0 °F 97% 29.64 in 7.0 mi South 4.6 mph - 0.03 in Rain Light Rain
10:10 AM 64.4 °F 64.4 °F 100% 29.66 in 8.0 mi South 3.5 mph - 0.00 in Rain Light Rain
10:33 AM 66.2 °F 64.4 °F 94% 29.67 in 10.0 mi SW 6.9 mph - 0.00 in   Overcast
10:43 AM 66.2 °F 64.4 °F 94% 29.67 in 10.0 mi Variable 6.9 mph - 0.00 in   Overcast
10:53 AM 66.9 °F 64.0 °F 90% 29.65 in 10.0 mi Variable 5.8 mph - 0.00 in   Overcast
11:34 AM 64.4 °F 62.6 °F 94% 29.67 in 10.0 mi Variable 5.8 mph - 0.00 in Rain Light Rain
11:53 AM 64.9 °F 63.0 °F 93% 29.65 in 10.0 mi South 5.8 mph - 0.01 in   Overcast
12:16 PM 64.4 °F 62.6 °F 94% 29.68 in 9.0 mi SSW 5.8 mph - N/A   Overcast
12:29 PM 66.2 °F 62.6 °F 88% 29.68 in 10.0 mi Variable 6.9 mph - N/A   Overcast
12:41 PM 66.2 °F 62.6 °F 88% 29.68 in 10.0 mi Variable 5.8 mph - N/A   Overcast
12:53 PM 66.9 °F 63.0 °F 87% 29.65 in 10.0 mi SSW 5.8 mph - N/A   Overcast
1:01 PM 66.2 °F 62.6 °F 88% 29.67 in 10.0 mi SSW 4.6 mph - N/A   Overcast
1:26 PM 66.2 °F 62.6 °F 88% 29.67 in 10.0 mi Variable 5.8 mph - N/A   Mostly Cloudy
1:49 PM 66.2 °F 62.6 °F 88% 29.68 in 10.0 mi SSW 8.1 mph - N/A   Overcast
1:53 PM 66.9 °F 63.0 °F 87% 29.66 in 10.0 mi SSW 6.9 mph - N/A   Overcast
2:53 PM 66.9 °F 63.0 °F 87% 29.64 in 10.0 mi SSW 6.9 mph - N/A   Overcast
3:01 PM 66.2 °F 62.6 °F 88% 29.66 in 10.0 mi South 5.8 mph - N/A   Mostly Cloudy
3:24 PM 68.0 °F 62.6 °F 83% 29.66 in 10.0 mi SSW 5.8 mph - N/A   Mostly Cloudy
3:38 PM 68.0 °F 62.6 °F 83% 29.67 in 10.0 mi Variable 5.8 mph - N/A   Overcast
3:53 PM 66.9 °F 63.0 °F 87% 29.65 in 10.0 mi Variable 5.8 mph - N/A   Overcast
4:44 PM 66.2 °F 62.6 °F 88% 29.69 in 10.0 mi SW 8.1 mph - 0.01 in   Overcast
4:53 PM 66.0 °F 63.0 °F 90% 29.67 in 10.0 mi SSW 5.8 mph - 0.01 in   Overcast
5:02 PM 66.2 °F 62.6 °F 88% 29.69 in 10.0 mi SW 6.9 mph - N/A   Overcast
5:24 PM 64.4 °F 60.8 °F 88% 29.71 in 2.5 mi WNW 9.2 mph 17.3 mph 0.02 in Rain Rain
5:31 PM 62.6 °F 60.8 °F 94% 29.72 in 5.0 mi WNW 8.1 mph 17.3 mph 0.03 in Rain Light Rain
5:53 PM 62.1 °F 59.0 °F 90% 29.73 in 10.0 mi WNW 9.2 mph 18.4 mph 0.03 in Rain Light Rain
6:53 PM 61.0 °F 55.9 °F 83% 29.79 in 10.0 mi NW 3.5 mph - 0.00 in   Overcast
7:11 PM 60.8 °F 55.4 °F 82% 29.82 in 10.0 mi Variable 4.6 mph - N/A   Overcast
7:38 PM 60.8 °F 55.4 °F 82% 29.83 in 10.0 mi Variable 3.5 mph - N/A   Overcast
7:49 PM 60.8 °F 55.4 °F 82% 29.84 in 10.0 mi Calm Calm - N/A   Overcast
7:53 PM 60.1 °F 55.0 °F 83% 29.83 in 10.0 mi NW 5.8 mph - N/A   Overcast
8:31 PM 59.0 °F 55.4 °F 88% 29.88 in 10.0 mi Calm Calm - N/A   Mostly Cloudy
8:53 PM 59.0 °F 55.0 °F 87% 29.88 in 10.0 mi Calm Calm - N/A   Scattered Clouds
9:53 PM 57.0 °F 54.0 °F 89% 29.90 in 10.0 mi Calm Calm - N/A   Clear
10:53 PM 55.0 °F 54.0 °F 96% 29.92 in 6.0 mi Calm Calm - N/A   Clear
11:53 PM 55.0 °F 54.0 °F 96% 29.93 in 4.0 mi Calm Calm - N/A   Overcast